Harrisburg, PA

10:48 PM EDT on May 23, 2018 (GMT -0400)
Capital City

Weather History for KCXY - November, 2013

Change the Weather History Date:

Wednesday, November 13, 2013

  Actual Average Record
Temperature  
Mean Temperature 34 °F -  
Max Temperature 41 °F 51 °F 72 °F (1964)
Min Temperature 28 °F 34 °F 21 °F (1911)
Degree Days  
Heating Degree Days 30    
Moisture  
Dew Point 18 °F    
Average Humidity 53    
Maximum Humidity 69    
Minimum Humidity 40    
Precipitation  
Precipitation 0.00 in - - ()
Sea Level Pressure  
Sea Level Pressure 30.41 in    
Wind  
Wind Speed 8 mph (WNW)    
Max Wind Speed 15 mph    
Max Gust Speed 25 mph    
Visibility 10 miles    
Events      
Averages and records for this station are not official NWS values.
T = Trace of Precipitation, MM = Missing Value Source: NWS Daily Summary

Daily Weather History Graph

Daily Weather History Graph

Search for Another Location

Airport or City:

Astronomy

Nov. 13, 2013 Rise Set
Actual Time 6:50 AM EST 4:51 PM EST
Civil Twilight 6:21 AM EST 5:20 PM EST
Nautical Twilight 5:49 AM EST 5:53 PM EST
Astronomical Twilight 5:17 AM EST 6:25 PM EST
Moon 2:38 PM EST (11/13) 2:41 AM EST (11/13)
Length of Visible Light 10h 59m
Length of Day
10h 01m
Waxing Gibbous, 84% of the Moon is Illuminated
Nov 13
Waxing Gibbous
Nov 17
Full
Nov 25
Last Quarter
Dec 2
New
Dec 9
First Quarter

Hourly Weather History & Observations

Time (EST) Temp. Windchill Dew Point Humidity Pressure Visibility Wind Dir Wind Speed Gust Speed Precip Events Conditions
12:56 AM 30.9 °F 24.3 °F 19.9 °F 64% 30.39 in 10.0 mi West 6.9 mph - N/A   Clear
1:56 AM 28.9 °F 23.9 °F 19.9 °F 69% 30.39 in 10.0 mi West 4.6 mph - N/A   Clear
2:56 AM 30.0 °F 23.2 °F 18.0 °F 61% 30.39 in 10.0 mi WNW 6.9 mph - N/A   Clear
3:56 AM 30.9 °F 22.8 °F 17.1 °F 57% 30.40 in 10.0 mi NW 9.2 mph 19.6 mph N/A   Partly Cloudy
4:56 AM 32.0 °F 22.1 °F 16.0 °F 52% 30.41 in 10.0 mi NW 13.8 mph 20.7 mph N/A   Mostly Cloudy
5:56 AM 32.0 °F 24.2 °F 16.0 °F 52% 30.42 in 10.0 mi NW 9.2 mph - N/A   Mostly Cloudy
6:56 AM 30.9 °F 24.3 °F 16.0 °F 54% 30.44 in 10.0 mi NW 6.9 mph - N/A   Scattered Clouds
7:56 AM 33.1 °F 26.1 °F 15.1 °F 48% 30.46 in 10.0 mi NW 8.1 mph 16.1 mph N/A   Clear
8:56 AM 34.0 °F 27.2 °F 16.0 °F 48% 30.47 in 10.0 mi NNW 8.1 mph - N/A   Partly Cloudy
9:56 AM 36.0 °F 27.1 °F 17.1 °F 46% 30.48 in 10.0 mi NNW 13.8 mph - N/A   Scattered Clouds
10:56 AM 37.9 °F 30.0 °F 17.1 °F 43% 30.46 in 10.0 mi NNW 12.7 mph 23.0 mph N/A   Mostly Cloudy
11:56 AM 37.9 °F 29.2 °F 18.0 °F 45% 30.44 in 10.0 mi North 15.0 mph 25.3 mph N/A   Mostly Cloudy
12:56 PM 37.0 °F 28.9 °F 19.0 °F 48% 30.42 in 10.0 mi NW 12.7 mph 19.6 mph N/A   Overcast
1:56 PM 39.0 °F 33.4 °F 19.9 °F 46% 30.41 in 10.0 mi NNW 8.1 mph - N/A   Scattered Clouds
2:56 PM 41.0 °F 34.7 °F 18.0 °F 40% 30.40 in 10.0 mi NNW 10.4 mph 20.7 mph N/A   Scattered Clouds
3:56 PM 39.0 °F 33.4 °F 19.0 °F 45% 30.40 in 10.0 mi West 8.1 mph - N/A   Clear
4:56 PM 37.0 °F 34.5 °F 18.0 °F 46% 30.40 in 10.0 mi WNW 3.5 mph - N/A   Clear
5:56 PM 33.1 °F 28.7 °F 21.0 °F 61% 30.40 in 10.0 mi WSW 4.6 mph - N/A   Clear
6:56 PM 33.1 °F 27.7 °F 19.9 °F 59% 30.41 in 10.0 mi West 5.8 mph - N/A   Clear
7:56 PM 32.0 °F 26.4 °F 19.0 °F 59% 30.40 in 10.0 mi West 5.8 mph - N/A   Clear
8:56 PM 33.1 °F 26.1 °F 19.0 °F 56% 30.39 in 10.0 mi West 8.1 mph - N/A   Clear
9:56 PM 33.1 °F 26.1 °F 18.0 °F 54% 30.38 in 10.0 mi WNW 8.1 mph - N/A   Clear
10:56 PM 32.0 °F 27.5 °F 18.0 °F 56% 30.36 in 10.0 mi West 4.6 mph - N/A   Clear
11:56 PM 32.0 °F 28.7 °F 18.0 °F 56% 30.35 in 10.0 mi West 3.5 mph - N/A   Clear